Location: Unspecified
(0.0000°N, 0.0000°E)
Time: 19:58:50
(UTC+00:00)

CZ-3C DEB - Pass Details

Date: 07 March 2026
Orbit: 1497 x 35067 km, 20.3° (Epoch: 12 June)

Event Time Altitude Azimuth Distance (km) Brightness Sun altitude
Rises 17:31:32 0° 301° (WNW) 5,621 ? 9.8°
Reaches altitude 10° 17:33:54 10° 306° (NW) 5,103 ? 9.2°
Maximum altitude 01:14:21 59° 144° (SE) 29,065 ? -73.4°
Drops below altitude 10° 03:33:11 10° 101° (E) 10,119 ? -39.2°
Sets 03:38:15 0° 97° (E) 9,860 ? -38.0°
